User: anonymous   Login
Location: Caltech
(34.1382°N, 118.1253°W)
Time: 11:32:08
(UTC-08:00)
Language:

TMSAT-1 - Orbit

View from above orbital plane
View from above orbital plane
View from above satellite
View from above satellite

Ground track
Ground track

The orbit data is extracted from the following two-line orbital elements,

1 25396U 98043C   14330.87458964  .00000203  00000-0  10612-3 0    80
2 25396 098.4624 286.4284 0003269 148.8289 263.9599 14.24234464851319
Epoch (UTC): 26 November 2014 20:59:24
Eccentricity: 0.0003269
inclination: 98.4624°
perigee height: 809 km
apogee height: 813 km
right ascension of ascending node: 286.4284°
argument of perigee: 148.8289°
revolutions per day: 14.24234464
mean anomaly at epoch: 263.9599°
orbit number at epoch: 85131

The dashed part of the orbit path shows where the satellite is in the earth's shadow,  

DLR